Williamstown, MA

1:29 AM EDT on September 27, 2016 (GMT -0400)
Harriman And West

Weather History for KAQW - May, 2013

Change the Weather History Date:

Wednesday, May 1, 2013

  Actual Average Record
Temperature  
Mean Temperature 55 °F -  
Max Temperature 75 °F 62 °F 84 °F (2001)
Min Temperature 37 °F 38 °F 24 °F (2008)
Degree Days  
Heating Degree Days 10    
Growing Degree Days 5 (Base 50)    
Moisture  
Dew Point 28 °F    
Average Humidity 39    
Maximum Humidity 70    
Minimum Humidity 12    
Precipitation  
Precipitation 0.00 in - - ()
Sea Level Pressure  
Sea Level Pressure 30.40 in    
Wind  
Wind Speed 3 mph (ESE)    
Max Wind Speed 10 mph    
Max Gust Speed 18 mph    
Visibility 10 miles    
Events      
Averages and records for this station are not official NWS values.
T = Trace of Precipitation, MM = Missing Value Source: NWS Daily Summary

Daily Weather History Graph

Daily Weather History Graph

Search for Another Location

Airport or City:

Trip Planner

Search our weather history database for the weather conditions in past years. The results will help you decide how hot, cold, wet, or windy it might be!

Date:

Astronomy

May. 01, 2013 Rise Set
Actual Time 5:46 AM EDT 7:53 PM EDT
Civil Twilight 5:16 AM EDT 8:24 PM EDT
Nautical Twilight 4:38 AM EDT 9:02 PM EDT
Astronomical Twilight 3:56 AM EDT 9:44 PM EDT
Moon 1:01 AM EDT (5/1) 11:22 AM EDT (5/1)
Length of Visible Light 15h 08m
Length of Day
14h 06m
Waning Gibbous, 59% of the Moon is Illuminated
May 1
Waning Gibbous
May 2
Last Quarter
May 9
New
May 18
First Quarter
May 25
Full

Hourly Weather History & Observations

Time (EDT) Temp. Windchill Dew Point Humidity Pressure Visibility Wind Dir Wind Speed Gust Speed Precip Events Conditions
12:52 AM 48.9 °F - 28.9 °F 46% 30.34 in 10.0 mi East 4.6 mph - N/A   Clear
1:52 AM 43.0 °F - 32.0 °F 65% 30.37 in 10.0 mi Calm Calm - N/A   Clear
2:52 AM 42.1 °F - 30.0 °F 62% 30.38 in 10.0 mi Calm Calm - N/A   Clear
3:52 AM 42.1 °F 40.2 °F 28.9 °F 60% 30.39 in 10.0 mi East 3.5 mph - N/A   Clear
4:52 AM 39.9 °F - 30.0 °F 68% 30.41 in 10.0 mi Calm Calm - N/A   Clear
5:52 AM 37.9 °F - 28.9 °F 70% 30.42 in 10.0 mi Calm Calm - N/A   Clear
6:52 AM 39.9 °F - 30.9 °F 70% 30.44 in 10.0 mi Calm Calm - N/A   Clear
7:52 AM 46.9 °F - 28.9 °F 50% 30.45 in 10.0 mi Calm Calm - N/A   Clear
8:52 AM 52.0 °F - 28.0 °F 40% 30.45 in 10.0 mi Calm Calm - N/A   Clear
9:52 AM 61.0 °F - 28.0 °F 29% 30.44 in 10.0 mi Calm Calm - N/A   Clear
10:52 AM 66.9 °F - 28.0 °F 23% 30.43 in 10.0 mi Variable 6.9 mph - N/A   Clear
11:52 AM 70.0 °F - 28.9 °F 22% 30.40 in 10.0 mi ESE 10.4 mph 16.1 mph N/A   Clear
12:52 PM 71.1 °F - 27.0 °F 19% 30.39 in 10.0 mi SE 8.1 mph 18.4 mph N/A   Clear
1:52 PM 73.0 °F - 25.0 °F 17% 30.38 in 10.0 mi SE 9.2 mph - N/A   Clear
2:52 PM 73.9 °F - 23.0 °F 15% 30.38 in 10.0 mi ESE 10.4 mph 18.4 mph N/A   Clear
3:52 PM 73.9 °F - 18.0 °F 12% 30.37 in 10.0 mi East 3.5 mph 17.3 mph N/A   Clear
4:52 PM 73.9 °F - 19.9 °F 13% 30.37 in 10.0 mi ENE 5.8 mph - N/A   Clear
5:52 PM 73.0 °F - 21.0 °F 14% 30.37 in 10.0 mi ESE 10.4 mph - N/A   Clear
6:52 PM 71.1 °F - 24.1 °F 17% 30.38 in 10.0 mi SE 4.6 mph - N/A   Clear
7:52 PM 66.9 °F - 24.1 °F 20% 30.40 in 10.0 mi ESE 6.9 mph - N/A   Clear
8:52 PM 59.0 °F - 30.9 °F 35% 30.42 in 10.0 mi Calm Calm - N/A   Clear
9:52 PM 52.0 °F - 35.1 °F 53% 30.43 in 10.0 mi Calm Calm - N/A   Clear
10:52 PM 52.0 °F - 33.1 °F 49% 30.45 in 10.0 mi East 3.5 mph - N/A   Clear
11:52 PM 48.0 °F - 34.0 °F 58% 30.45 in 10.0 mi Calm Calm - N/A   Clear